COSMOS 1275 DEB, 39938

Orbit data source: Space-Track

COSMOS 1275 DEB, 39938 is space debris in LEO originally from a launch on Thu, 04 Jun 1981 UTC launched from the Plesetsk Missile And Space Complex (PKMTR). Debris objects in space refer to the collection of defunct objects orbiting the Earth. Examples of debris include non-operational satellites, rocket bodies, and fragments generated from explosions, collisions, or faulty payload assembly.

Loading next visibility...
Identifier
39938, 1981-053MY
Orbit
LEO
Country
Flag of CISCIS
Related business
Manufacturer
Unknown
Mission
Spacecraft
Bus & Motor
Unknown
Mass
Unknown
Launch date (UTC)
1981-06-04 (45 years ago)
Launch vehicle
Unknown
Launch site
Plesetsk Missile And Space Complex (PKMTR)
Object type
Payload
Rocket body
Debris
Shape & HBR
Unknown shape, 0.1 m
Radar Cross Section
Small (<0.1 m²)

Expand to show TLE details & history
Last TLE update: 1 day ago

TLE from 1 day ago
0 COSMOS 1275 DEB
1 39938U 81053MY  26103.88959058  .00000756  00000-0  80254-3 0  9993
2 39938  83.0698 160.5170 0136753 147.3623 213.6076 13.68982586590442
Epoch: 2026-04-13T21:21Z
TLE epoch observation values (Epoch: 2026-04-13T21:21:00.626Z)
Latitude
-0°
Longitude
-1.80932°
Altitude
1,090.624 km
Speed
7.265 km/s
True Right ascension
10h 42m 04s
True Declination
0° 00' 00"
Sunlit
Object was in full shadow at epoch
Visualization orbit readout
Latitude
Unknown
Longitude
Unknown
Altitude
Unknown
Speed
Unknown
Apparent Right ascension
Unknown
Apparent Declination
Unknown
Sunlit
N/A
Visualization observer readout
Local Sidereal Time
06:13:40
Azimuth
Unknown
Elevation
Unknown
Doppler factor
Unknown
Orbital elements
Apogee altitude
1,101.281 km
Perigee altitude
899.474 km
Semi-major axis
7,378.514 km
Eccentricity
0.01368
Inclination
83.0698°
RAAN
160.517°
Arg. of periapsis
147.3623°
True anomaly
212.75244°
Mean anomaly
213.6076°
Eccentric anomaly
213.17881°
Mean motion
3.42444 °/min
Orbital period
105.13 mins
BSTAR
0.00080254
Loading maneuver chart data...
Computing Atmospheric mass density...
Loading historical data...
Loading historical data...
Loading historical data...
Loading historical data...
Loading historical data...
Loading historical data...
Loading historical data...

Documentation

Showing up to 5 results
|